SCP
0 0 0 0 0 0 0 0 0 0 0 0 0 0 0 0 0 0 0 0 0 0 0 0 0 0 0 0 0 0 1 1 1 1 1 1 1 1 0 0 0 0 0
0 0 0 0 0 0 0 0 0 0 0 0 0 0 0 0 0 0 0 0 0 0 0 0 0 0 0 0 0 0 0 1 1 1 1 1 1 1 0 0 0 0 0
0 0 0 0 0 0 0 0 0 0 0 0 0 0 0 0 0 0 0 0 0 0 0 0 0 0 0 0 0 0 0 0 1 1 1 1 1 1 0 0 0 0 0
0 0 0 0 0 0 0 0 0 0 0 0 0 0 0 0 0 0 0 0 0 0 0 0 0 0 0 0 0 0 0 0 1 1 1 1 1 1 0 0 0 0 0
0 0 0 0 0 0 0 0 0 0 0 0 0 0 0 0 0 0 0 0 0 0 0 0 0 0 0 0 0 0 0 0 0 1 1 1 1 1 0 0 0 0 0
0 0 0 0 0 0 0 0 0 0 0 0 0 0 0 0 0 0 0 0 0 0 0 0 0 0 0 0 0 0 0 0 0 0 1 1 1 1 0 0 0 0 0
0 0 0 0 0 0 0 0 0 0 0 0 0 0 0 0 0 0 0 0 0 0 0 0 0 0 0 0 0 0 0 0 0 0 0 0 1 0 0 0 0 0 0
0 0 0 0 0 0 0 0 0 0 0 0 0 0 0 0 0 0 0 0 0 0 0 0 0 0 0 0 0 0 0 0 0 0 0 0 0 0 0 0 0 0 0
0 0 0 0 0 0 0 0 0 0 0 0 0 0 0 0 0 0 0 0 0 0 0 0 0 0 0 0 0 0 0 0 0 0 0 0 0 0 0 0 0 0 0
0 0 0 0 0 0 0 0 0 0 0 0 0 0 0 0 0 0 0 0 0 0 0 0 0 0 0 0 0 0 0 0 0 0 0 0 0 0 0 0 0 0 0
0 0 0 0 0 0 0 0 0 0 0 0 0 0 0 0 0 0 0 0 0 0 0 0 0 0 0 0 0 0 0 0 0 0 0 0 0 0 0 0 0 0 0
0 0 0 0 0 0 0 0 0 0 0 0 0 0 0 0 0 0 0 0 0 0 0 0 0 0 0 0 0 0 0 0 0 0 0 0 0 0 0 0 0 0 0
0 0 0 0 0 0 0 0 0 0 0 0 0 0 0 0 0 0 0 0 0 0 0 0 0 0 0 0 0 0 0 0 0 0 0 0 0 0 0 0 0 0 0
0 0 0 0 0 0 0 0 0 0 0 0 0 0 0 0 0 0 0 0 0 0 0 0 0 0 0 0 0 0 0 0 0 0 0 0 0 0 0 0 0 0 0
0 0 0 0 0 0 0 0 0 0 0 0 0 0 0 0 0 0 0 0 0 0 0 0 0 0 0 0 0 0 0 0 0 0 0 0 0 0 0 0 0 0 0
0 0 0 0 0 0 0 0 0 0 0 0 0 0 0 0 0 0 0 0 0 0 0 0 0 0 0 0 0 0 0 0 0 0 0 0 0 0 0 0 0 0 0
0 0 0 0 0 0 0 0 0 0 0 0 0 0 0 0 0 0 0 0 0 0 0 0 0 0 0 0 0 0 0 0 0 0 0 0 0 0 0 0 0 0 0
0 0 0 0 0 0 0 0 0 0 0 0 0 0 0 0 0 0 0 0 0 0 0 0 0 0 0 0 0 0 0 0 0 0 0 0 0 0 0 0 0 0 0
0 0 0 0 0 0 0 0 0 0 0 0 0 0 0 0 0 0 0 0 0 0 0 0 0 0 0 0 0 0 0 0 0 0 0 0 0 0 0 0 0 0 0
0 0 0 0 0 0 0 0 0 0 0 0 0 0 0 0 0 0 0 0 0 0 0 0 0 0 0 0 0 0 0 0 0 0 0 0 0 0 0 0 0 0 0
0 0 0 0 0 0 0 0 0 0 0 0 0 0 0 0 0 0 0 0 0 0 0 0 0 0 0 0 0 0 0 0 0 0 0 0 0 0 0 0 0 0 0
0 0 0 0 0 0 0 0 0 0 0 0 0 0 0 0 0 0 0 0 0 0 0 0 0 0 0 0 0 0 0 0 0 0 0 0 0 0 0 0 0 0 0
0 0 0 0 0 0 0 0 0 0 0 0 0 0 0 0 0 0 0 0 0 0 0 0 0 0 0 0 0 0 0 0 0 0 0 0 0 0 0 0 0 0 0
0 0 0 0 0 0 0 0 0 0 0 0 0 0 0 0 0 0 0 0 0 0 0 0 0 0 0 0 0 0 0 0 0 0 0 0 0 0 0 0 0 0 0
0 0 0 0 0 0 0 0 0 0 0 0 0 0 0 0 0 0 0 0 0 0 0 0 0 0 0 0 0 0 0 0 0 0 0 0 0 0 0 0 0 0 0
0 0 0 0 0 0 0 0 0 0 0 0 0 0 0 0 0 0 0 0 0 0 0 0 0 0 0 0 0 0 0 0 0 0 0 0 0 0 0 0 0 0 0
Wind_Speed
6 6 6 6 7 8 7 8 7 8 8 8 8 9 9 8 8 7 8 7 7 6 6 5 5 5 4 4 4 4 4 3 2 2 4 7 8 9 7 7 7 6 6
7 6 7 7 7 8 10 8 8 8 8 9 9 9 10 10 8 8 9 9 8 8 7 7 6 5 6 4 4 5 4 4 2 4 4 6 8 9 8 7 7 7 6
9 8 8 9 9 9 9 9 9 9 9 9 9 10 10 10 10 9 9 9 9 8 8 8 8 7 6 5 5 4 4 4 2 4 5 5 6 8 8 8 9 7 7
10 10 9 9 9 9 9 9 9 9 9 10 10 10 10 10 11 10 10 10 9 9 8 8 8 8 7 7 6 6 5 4 3 3 5 6 7 8 8 8 7 6 6
11 11 10 9 9 9 9 10 10 10 12 10 10 10 10 10 11 11 10 11 9 9 9 9 9 10 11 8 6 6 6 5 4 4 5 6 7 9 8 6 7 6 6
10 11 11 10 10 10 10 10 10 10 11 10 11 12 12 12 12 11 9 9 8 8 9 9 9 10 12 12 11 9 8 7 7 6 5 7 9 9 8 9 9 8 5
10 11 11 11 12 11 12 12 12 11 11 11 11 12 12 12 14 14 13 9 9 8 8 8 10 11 12 10 10 11 10 9 8 5 7 7 7 9 11 11 10 8 5
11 12 11 12 12 12 12 12 11 10 10 10 11 12 11 12 14 13 14 11 10 9 8 8 9 8 9 10 10 9 9 9 9 7 5 4 4 5 8 10 10 8 7
12 12 12 12 13 13 13 12 11 10 10 10 11 10 10 10 12 12 12 8 8 9 9 9 10 10 10 12 10 9 8 7 9 10 8 5 5 6 7 9 10 10 9
13 13 13 13 13 14 13 12 10 9 10 10 10 9 9 9 8 10 11 7 7 8 7 8 11 11 11 12 9 8 8 7 7 8 8 7 6 7 10 10 12 12 10
13 13 13 13 13 13 11 9 9 9 10 9 10 8 8 7 6 8 10 6 6 6 6 6 6 11 12 13 10 6 6 6 7 7 7 7 6 6 8 8 9 10 10
13 14 14 13 13 12 11 10 9 9 9 8 7 7 5 4 4 6 9 8 5 4 3 3 3 9 12 13 9 6 6 5 5 6 6 7 7 7 7 9 9 7 6
13 14 14 15 13 12 10 10 8 7 6 6 6 6 5 2 1 4 7 7 6 3 1 1 1 7 10 9 9 8 7 4 4 5 6 6 6 7 7 7 7 6 6
13 14 13 13 13 11 8 7 7 6 6 6 6 5 4 3 1 1 3 4 5 4 3 2 4 7 7 6 8 7 5 5 5 5 6 6 6 7 7 7 7 7 6
13 13 13 12 11 10 9 7 7 4 3 4 6 6 5 3 2 2 1 1 1 2 2 3 3 4 5 5 6 7 7 6 6 4 5 6 6 7 7 7 8 8 7
12 12 10 10 10 9 9 8 5 5 4 4 5 5 4 2 1 1 2 2 2 2 1 3 4 5 6 7 7 7 7 7 6 6 5 6 7 7 7 8 8 9 9
12 12 10 10 10 9 8 8 6 4 5 7 6 6 4 3 2 1 1 1 2 1 2 3 4 5 5 6 6 7 7 7 6 6 6 6 7 8 9 9 9 9 9
12 12 10 9 9 9 8 7 6 5 4 3 5 6 5 4 3 2 2 2 3 4 5 5 4 5 5 5 5 5 5 5 6 6 6 7 8 9 9 10 10 10 9
11 9 9 10 10 9 8 7 5 5 4 3 1 3 5 4 4 4 4 5 5 5 6 5 5 5 5 5 4 4 4 4 5 6 6 7 8 9 9 10 10 13 10
9 12 12 10 9 8 7 7 5 4 4 4 3 1 3 4 4 5 6 6 5 4 4 4 4 4 4 4 3 3 4 4 5 5 6 7 7 8 10 11 11 12 10
10 10 13 10 7 7 7 7 5 4 4 3 2 1 1 3 3 3 4 5 4 4 3 3 3 4 4 3 3 4 5 5 5 5 6 7 8 9 9 9 10 11 10
9 9 9 9 7 6 7 6 5 4 4 4 3 0 2 3 2 2 2 2 3 2 2 2 3 3 2 3 3 4 4 4 5 5 6 7 7 9 9 9 10 10 10
9 9 9 9 7 6 6 5 5 4 4 4 3 2 1 2 1 2 1 1 1 1 1 1 2 1 1 1 1 2 3 4 5 6 7 7 7 8 9 10 12 12 11
9 9 9 9 7 5 5 6 4 4 4 4 4 3 2 2 1 1 1 1 0 0 0 0 0 1 3 2 1 1 2 3 4 5 8 8 8 8 9 9 10 13 12
8 8 9 8 8 7 6 5 4 3 3 3 3 3 3 2 2 1 1 0 1 0 1 0 0 2 3 3 3 4 6 6 4 5 6 6 9 9 9 10 10 11 11
7 8 8 8 8 7 6 5 4 4 3 3 3 3 3 4 3 2 2 1 1 1 1 2 3 4 4 4 7 8 6 6 6 5 4 5 7 8 9 8 11 10 12
Wind_Direction
317 316 313 306 305 303 296 292 293 295 295 292 288 284 280 275 266 251 244 242 243 240 236 231 234 245 257 265 278 281 276 264 230 171 138 137 131 130 126 123 127 110 95
319 314 308 306 304 301 301 300 298 293 290 290 286 283 279 276 267 259 249 246 238 235 231 225 223 226 236 243 256 269 268 264 210 172 151 145 142 135 135 133 124 111 102
318 314 313 309 306 302 300 297 294 291 288 287 285 281 278 276 271 265 256 248 243 238 231 223 218 215 223 227 231 246 263 263 239 184 171 156 144 139 132 122 115 116 110
318 315 309 304 302 300 298 295 293 290 287 282 279 277 275 274 270 265 260 250 241 238 235 228 219 212 211 213 222 225 230 243 237 209 178 162 151 146 138 134 131 134 129
314 310 306 303 301 299 297 296 293 290 289 286 284 280 275 271 264 257 254 255 244 236 233 229 225 214 208 203 207 212 215 217 218 214 195 172 160 159 156 150 142 131 119
311 308 306 304 302 299 299 297 294 292 290 286 283 279 274 272 272 272 261 261 257 246 240 234 232 220 210 202 200 196 198 206 209 204 203 190 178 169 158 153 148 147 141
312 308 307 306 305 303 305 304 299 297 293 287 283 279 273 269 266 262 258 252 253 246 239 238 240 227 199 194 197 196 199 204 205 204 209 203 182 174 165 159 160 161 143
312 310 311 309 307 307 305 300 298 297 294 290 285 281 275 271 261 250 247 245 246 241 233 230 233 243 218 191 189 196 201 200 199 203 206 198 187 179 173 163 155 130 118
314 315 315 313 310 307 304 302 300 297 295 290 287 281 276 271 259 247 235 241 240 239 232 229 224 230 223 194 189 193 195 197 199 198 187 181 184 184 169 152 148 145 143
319 318 315 312 309 305 301 299 298 296 293 294 292 287 282 276 260 242 223 231 235 237 230 230 226 224 213 192 191 191 194 194 187 185 185 183 189 185 179 170 160 156 147
319 315 313 311 308 301 299 301 300 297 296 297 296 292 285 277 259 235 215 227 232 235 230 221 223 208 200 196 196 196 197 185 184 181 181 180 185 184 183 178 169 164 159
318 315 314 312 309 308 306 302 301 298 298 299 301 300 291 277 257 230 210 220 247 252 242 232 217 192 188 188 192 180 170 175 181 183 183 183 184 182 183 178 171 167 161
319 316 314 312 307 305 303 303 303 301 301 305 309 311 309 303 254 217 211 216 225 244 314 335 210 180 182 187 194 176 171 189 195 195 193 188 184 176 171 164 158 148 128
319 317 313 310 309 310 308 305 305 308 311 315 317 319 322 323 323 236 200 201 202 207 225 217 166 171 190 189 178 184 199 212 207 201 197 184 173 168 170 161 153 144 126
319 316 314 310 310 311 310 307 304 308 304 300 314 319 324 333 12 8 331 234 197 175 192 186 184 175 196 201 194 190 198 209 217 207 195 184 171 165 165 157 152 147 144
317 316 314 311 312 313 313 312 292 277 258 246 259 285 310 1 52 24 44 49 44 36 196 200 210 204 204 205 204 198 198 203 203 197 192 184 174 170 165 158 161 161 157
314 313 312 311 311 312 312 312 308 286 248 249 254 257 264 296 294 282 293 319 319 324 239 222 218 216 218 220 212 203 198 200 195 190 185 180 172 168 166 164 165 164 162
316 312 311 312 312 310 309 307 308 309 302 276 231 231 233 238 250 242 206 219 231 225 236 235 223 222 224 227 221 208 200 191 187 186 178 174 172 170 169 167 166 167 162
318 316 318 315 309 309 310 314 318 322 314 303 264 181 208 210 222 228 214 236 241 225 225 231 231 227 223 222 212 203 203 193 181 176 175 172 169 167 168 167 165 165 162
314 312 313 313 314 316 322 327 334 333 331 324 313 245 176 198 215 201 211 232 247 251 241 233 230 227 218 214 210 199 194 184 179 177 172 170 168 166 166 166 166 168 171
317 317 315 313 320 327 330 331 338 337 335 334 339 33 328 264 264 247 220 220 231 239 241 234 226 225 212 196 200 202 198 187 180 175 170 168 167 166 166 166 166 167 169
314 317 320 320 324 330 328 328 338 340 344 352 341 295 243 269 282 269 245 232 238 235 235 245 237 229 204 189 192 197 196 183 175 170 167 167 166 165 163 164 165 167 168
314 320 323 324 329 327 323 334 348 350 350 354 349 349 333 310 300 303 305 275 250 248 237 229 246 225 165 144 146 179 188 179 171 165 162 162 161 162 161 162 165 167 172
318 324 327 328 332 337 342 345 358 360 355 352 353 357 6 353 337 323 305 276 243 228 256 258 221 123 116 111 106 117 113 121 141 152 157 157 158 158 160 162 166 171 171
326 329 329 332 336 345 351 349 359 4 353 357 5 9 18 19 10 12 12 103 133 156 143 138 101 118 123 127 106 89 90 96 113 137 148 150 152 154 159 162 164 167 165
334 332 332 335 339 345 351 351 0 14 9 10 12 14 15 22 24 30 43 70 105 97 95 102 102 103 105 95 95 97 97 96 98 108 132 146 149 153 156 158 163 162 160